QPF
0.00 0.00 0.02 0.06 0.11 0.12 0.08 0.06 0.05 0.06 0.02 0.01 0.00 0.00 0.02 0.03 0.04 0.04 0.05 0.05 0.03 0.03 0.03 0.02 0.03 0.03 0.04 0.04 0.04 0.05 0.06 0.07 0.08 0.08 0.08 0.09 0.07 0.07 0.05 0.05 0.06 0.07 0.08 0.09 0.10 0.10 0.08 0.07 0.07
0.01 0.01 0.03 0.06 0.11 0.10 0.06 0.07 0.06 0.04 0.01 0.00 0.00 0.00 0.00 0.00 0.01 0.02 0.03 0.03 0.02 0.02 0.01 0.01 0.03 0.03 0.03 0.04 0.04 0.04 0.05 0.05 0.06 0.07 0.05 0.05 0.04 0.06 0.05 0.05 0.06 0.07 0.06 0.06 0.06 0.06 0.07 0.06 0.06
0.02 0.03 0.03 0.06 0.08 0.09 0.07 0.06 0.04 0.02 0.01 0.00 0.00 0.00 0.00 0.01 0.01 0.02 0.03 0.01 0.01 0.01 0.02 0.01 0.03 0.03 0.02 0.04 0.05 0.06 0.05 0.05 0.05 0.05 0.05 0.04 0.03 0.03 0.03 0.03 0.04 0.05 0.05 0.04 0.04 0.06 0.06 0.06 0.06
0.03 0.03 0.03 0.04 0.05 0.05 0.05 0.04 0.03 0.02 0.01 0.00 0.00 0.00 0.00 0.01 0.02 0.03 0.02 0.01 0.01 0.01 0.01 0.01 0.02 0.02 0.02 0.02 0.03 0.05 0.04 0.04 0.06 0.06 0.07 0.05 0.04 0.03 0.02 0.02 0.04 0.04 0.04 0.04 0.04 0.07 0.07 0.06 0.05
0.04 0.04 0.04 0.05 0.04 0.03 0.03 0.03 0.03 0.02 0.02 0.01 0.01 0.01 0.01 0.01 0.01 0.02 0.02 0.00 0.00 0.01 0.01 0.01 0.01 0.01 0.02 0.02 0.03 0.05 0.04 0.05 0.06 0.07 0.07 0.05 0.05 0.04 0.03 0.03 0.05 0.05 0.04 0.04 0.05 0.06 0.07 0.06 0.05
0.03 0.03 0.06 0.05 0.03 0.02 0.02 0.03 0.03 0.03 0.02 0.02 0.02 0.01 0.02 0.02 0.01 0.01 0.01 0.00 0.00 0.00 0.00 0.00 0.01 0.01 0.02 0.03 0.04 0.06 0.06 0.08 0.07 0.06 0.05 0.04 0.04 0.04 0.03 0.03 0.05 0.05 0.05 0.04 0.04 0.05 0.05 0.05 0.04
0.03 0.04 0.05 0.02 0.01 0.01 0.02 0.02 0.03 0.03 0.03 0.03 0.03 0.03 0.03 0.02 0.01 0.01 0.00 0.00 0.00 0.00 0.00 0.00 0.01 0.01 0.01 0.02 0.04 0.06 0.07 0.08 0.07 0.06 0.06 0.06 0.05 0.04 0.04 0.04 0.03 0.03 0.03 0.03 0.04 0.04 0.04 0.03 0.03
0.01 0.02 0.03 0.02 0.01 0.01 0.01 0.01 0.01 0.02 0.03 0.02 0.02 0.04 0.03 0.02 0.01 0.01 0.01 0.00 0.00 0.00 0.01 0.01 0.01 0.01 0.01 0.01 0.02 0.03 0.05 0.06 0.05 0.05 0.05 0.05 0.05 0.04 0.05 0.04 0.04 0.03 0.03 0.04 0.04 0.04 0.03 0.02 0.02
0.00 0.02 0.03 0.01 0.01 0.00 0.00 0.00 0.00 0.01 0.01 0.01 0.02 0.02 0.03 0.01 0.01 0.01 0.01 0.01 0.01 0.02 0.02 0.00 0.01 0.01 0.01 0.01 0.01 0.02 0.03 0.04 0.04 0.04 0.03 0.05 0.06 0.06 0.05 0.05 0.04 0.05 0.04 0.04 0.03 0.03 0.02 0.01 0.01
0.01 0.03 0.03 0.00 0.00 0.00 0.00 0.00 0.00 0.00 0.01 0.02 0.02 0.01 0.02 0.02 0.02 0.01 0.01 0.01 0.01 0.01 0.01 0.01 0.01 0.01 0.01 0.00 0.00 0.02 0.02 0.03 0.03 0.02 0.02 0.04 0.06 0.05 0.04 0.04 0.05 0.04 0.03 0.02 0.02 0.02 0.01 0.01 0.01
0.00 0.01 0.01 0.00 0.00 0.00 0.00 0.00 0.00 0.01 0.01 0.01 0.01 0.01 0.01 0.02 0.02 0.04 0.02 0.01 0.00 0.00 0.00 0.01 0.01 0.01 0.01 0.01 0.00 0.01 0.01 0.01 0.01 0.02 0.01 0.02 0.03 0.04 0.04 0.03 0.03 0.03 0.02 0.01 0.01 0.02 0.02 0.03 0.03
0.00 0.00 0.00 0.00 0.00 0.00 0.00 0.00 0.00 0.00 0.01 0.01 0.01 0.00 0.00 0.01 0.01 0.01 0.01 0.00 0.00 0.00 0.00 0.00 0.00 0.01 0.01 0.01 0.01 0.01 0.01 0.00 0.00 0.01 0.01 0.01 0.02 0.03 0.04 0.03 0.02 0.03 0.02 0.02 0.01 0.02 0.02 0.03 0.03
0.00 0.00 0.00 0.00 0.00 0.00 0.00 0.00 0.00 0.00 0.00 0.00 0.01 0.00 0.00 0.00 0.00 0.00 0.00 0.00 0.00 0.00 0.00 0.00 0.00 0.00 0.01 0.01 0.01 0.01 0.01 0.01 0.00 0.00 0.01 0.01 0.01 0.02 0.01 0.01 0.01 0.01 0.02 0.02 0.01 0.01 0.01 0.02 0.01
0.00 0.00 0.00 0.00 0.00 0.00 0.00 0.00 0.00 0.00 0.00 0.01 0.01 0.00 0.01 0.00 0.00 0.00 0.01 0.01 0.00 0.00 0.00 0.00 0.00 0.00 0.01 0.00 0.01 0.01 0.01 0.01 0.00 0.00 0.00 0.01 0.01 0.01 0.01 0.01 0.01 0.01 0.01 0.02 0.02 0.02 0.02 0.02 0.02
0.00 0.00 0.00 0.00 0.00 0.00 0.00 0.00 0.00 0.00 0.00 0.00 0.01 0.01 0.01 0.01 0.00 0.00 0.00 0.00 0.00 0.00 0.00 0.00 0.00 0.00 0.01 0.01 0.00 0.00 0.00 0.00 0.00 0.00 0.00 0.00 0.00 0.01 0.01 0.01 0.02 0.01 0.01 0.01 0.03 0.03 0.02 0.02 0.02
0.00 0.00 0.01 0.00 0.00 0.00 0.00 0.00 0.00 0.00 0.00 0.00 0.01 0.01 0.01 0.01 0.00 0.00 0.00 0.00 0.00 0.00 0.00 0.00 0.00 0.00 0.00 0.00 0.00 0.01 0.01 0.01 0.01 0.00 0.00 0.00 0.00 0.00 0.01 0.01 0.02 0.01 0.01 0.01 0.02 0.02 0.01 0.01 0.01
0.00 0.00 0.01 0.00 0.00 0.00 0.00 0.00 0.00 0.00 0.00 0.00 0.00 0.01 0.01 0.01 0.01 0.00 0.00 0.00 0.00 0.00 0.00 0.00 0.00 0.00 0.00 0.00 0.00 0.00 0.00 0.01 0.01 0.01 0.00 0.00 0.00 0.00 0.00 0.01 0.01 0.02 0.02 0.02 0.02 0.01 0.01 0.01 0.02
0.00 0.01 0.01 0.00 0.00 0.00 0.00 0.00 0.00 0.00 0.00 0.00 0.00 0.00 0.00 0.01 0.01 0.00 0.00 0.00 0.00 0.00 0.00 0.00 0.00 0.00 0.00 0.00 0.00 0.01 0.01 0.01 0.01 0.01 0.00 0.00 0.00 0.00 0.00 0.01 0.01 0.02 0.03 0.03 0.03 0.03 0.01 0.01 0.02
0.00 0.01 0.02 0.02 0.00 0.00 0.00 0.00 0.00 0.00 0.00 0.00 0.00 0.00 0.00 0.00 0.01 0.00 0.00 0.00 0.01 0.00 0.00 0.00 0.00 0.00 0.00 0.00 0.01 0.01 0.01 0.01 0.02 0.01 0.00 0.01 0.01 0.00 0.01 0.01 0.02 0.02 0.02 0.03 0.02 0.02 0.02 0.03 0.02
0.00 0.00 0.01 0.01 0.00 0.00 0.00 0.00 0.00 0.00 0.00 0.00 0.00 0.00 0.00 0.00 0.00 0.00 0.01 0.01 0.01 0.01 0.00 0.00 0.00 0.00 0.00 0.00 0.01 0.01 0.01 0.01 0.01 0.02 0.01 0.01 0.01 0.01 0.01 0.01 0.01 0.01 0.02 0.03 0.02 0.02 0.03 0.03 0.03
0.00 0.00 0.00 0.00 0.00 0.00 0.00 0.00 0.00 0.00 0.00 0.00 0.00 0.00 0.00 0.00 0.00 0.00 0.00 0.01 0.01 0.00 0.00 0.00 0.00 0.00 0.00 0.00 0.00 0.01 0.01 0.02 0.02 0.02 0.01 0.01 0.01 0.01 0.01 0.01 0.01 0.01 0.01 0.02 0.02 0.03 0.03 0.03 0.03
0.00 0.00 0.00 0.00 0.00 0.00 0.00 0.00 0.00 0.00 0.00 0.00 0.00 0.00 0.00 0.00 0.00 0.00 0.00 0.00 0.01 0.01 0.00 0.00 0.00 0.00 0.00 0.00 0.00 0.01 0.01 0.01 0.01 0.01 0.01 0.01 0.01 0.00 0.01 0.01 0.00 0.01 0.01 0.02 0.01 0.02 0.03 0.03 0.04
0.00 0.00 0.00 0.00 0.00 0.00 0.00 0.00 0.00 0.00 0.00 0.00 0.00 0.00 0.00 0.00 0.00 0.00 0.00 0.00 0.00 0.00 0.00 0.00 0.00 0.01 0.01 0.00 0.00 0.01 0.01 0.01 0.00 0.00 0.00 0.00 0.00 0.00 0.00 0.00 0.00 0.01 0.01 0.01 0.02 0.01 0.02 0.02 0.04
0.00 0.00 0.00 0.00 0.00 0.00 0.00 0.00 0.00 0.00 0.01 0.02 0.02 0.01 0.01 0.00 0.00 0.00 0.00 0.00 0.00 0.00 0.00 0.00 0.00 0.00 0.00 0.01 0.02 0.03 0.02 0.01 0.00 0.00 0.00 0.00 0.00 0.00 0.00 0.00 0.01 0.01 0.01 0.01 0.01 0.01 0.01 0.02 0.02
0.00 0.00 0.01 0.01 0.01 0.00 0.00 0.00 0.00 0.00 0.01 0.01 0.01 0.01 0.01 0.00 0.00 0.00 0.00 0.00 0.00 0.00 0.00 0.00 0.00 0.00 0.01 0.01 0.02 0.04 0.03 0.01 0.00 0.01 0.00 0.01 0.00 0.00 0.00 0.00 0.00 0.01 0.01 0.01 0.01 0.02 0.02 0.02 0.01
0.00 0.01 0.01 0.02 0.01 0.01 0.00 0.00 0.00 0.00 0.00 0.00 0.00 0.00 0.00 0.00 0.00 0.00 0.00 0.00 0.00 0.00 0.00 0.00 0.00 0.00 0.00 0.01 0.02 0.03 0.03 0.02 0.01 0.01 0.01 0.00 0.00 0.00 0.00 0.00 0.00 0.01 0.02 0.02 0.02 0.02 0.03 0.03 0.03
0.01 0.01 0.01 0.01 0.01 0.01 0.00 0.00 0.00 0.00 0.00 0.00 0.00 0.00 0.00 0.00 0.00 0.00 0.00 0.00 0.00 0.00 0.00 0.00 0.00 0.00 0.00 0.00 0.01 0.01 0.02 0.02 0.01 0.00 0.00 0.00 0.00 0.00 0.00 0.00 0.00 0.00 0.01 0.01 0.01 0.02 0.02 0.03 0.03
0.00 0.00 0.00 0.01 0.01 0.01 0.00 0.00 0.01 0.01 0.00 0.00 0.00 0.00 0.00 0.00 0.00 0.00 0.00 0.00 0.00 0.00 0.00 0.00 0.00 0.00 0.00 0.00 0.00 0.01 0.02 0.02 0.01 0.01 0.01 0.00 0.00 0.00 0.00 0.00 0.00 0.00 0.00 0.01 0.01 0.01 0.01 0.01 0.02
0.00 0.00 0.00 0.01 0.01 0.01 0.01 0.01 0.01 0.01 0.00 0.00 0.00 0.00 0.00 0.00 0.00 0.00 0.01 0.00 0.00 0.00 0.00 0.00 0.00 0.00 0.00 0.01 0.01 0.01 0.01 0.01 0.00 0.01 0.01 0.00 0.00 0.00 0.00 0.00 0.00 0.00 0.00 0.00 0.01 0.01 0.00 0.01 0.02
0.00 0.00 0.00 0.01 0.01 0.01 0.02 0.02 0.00 0.00 0.00 0.00 0.00 0.00 0.00 0.00 0.00 0.00 0.00 0.01 0.01 0.00 0.00 0.01 0.01 0.01 0.01 0.01 0.02 0.01 0.02 0.01 0.01 0.01 0.01 0.01 0.01 0.00 0.00 0.00 0.00 0.00 0.00 0.00 0.01 0.01 0.00 0.00 0.01
MSLP
1007.35 1008.11 1009.10 1010.24 1011.40 1012.48 1013.36 1013.98 1014.31 1014.40 1014.31 1014.14 1014.00 1013.92 1013.96 1014.08 1014.24 1014.38 1014.44 1014.41 1014.29 1014.10 1013.89 1013.72 1013.62 1013.59 1013.59 1013.60 1013.57 1013.45 1013.25 1012.97 1012.67 1012.39 1012.18 1012.06 1012.04 1012.09 1012.17 1012.22 1012.22 1012.15 1012.00 1011.79 1011.56 1011.33 1011.11 1010.93 1010.76
1007.68 1008.58 1009.67 1010.82 1011.93 1012.87 1013.58 1014.01 1014.17 1014.12 1013.94 1013.74 1013.59 1013.54 1013.59 1013.73 1013.89 1014.02 1014.09 1014.07 1013.99 1013.87 1013.77 1013.73 1013.75 1013.84 1013.95 1014.02 1014.03 1013.93 1013.74 1013.46 1013.16 1012.89 1012.69 1012.59 1012.58 1012.63 1012.70 1012.74 1012.71 1012.60 1012.43 1012.19 1011.93 1011.66 1011.41 1011.19 1010.98
1008.15 1009.16 1010.29 1011.42 1012.44 1013.24 1013.77 1014.02 1014.03 1013.87 1013.64 1013.41 1013.27 1013.23 1013.29 1013.41 1013.54 1013.64 1013.68 1013.66 1013.61 1013.57 1013.58 1013.67 1013.83 1014.05 1014.27 1014.43 1014.49 1014.43 1014.25 1013.99 1013.71 1013.45 1013.27 1013.17 1013.16 1013.20 1013.25 1013.26 1013.20 1013.06 1012.86 1012.61 1012.34 1012.07 1011.81 1011.57 1011.35
1008.72 1009.80 1010.93 1012.00 1012.89 1013.54 1013.91 1014.02 1013.92 1013.70 1013.44 1013.22 1013.10 1013.06 1013.11 1013.19 1013.26 1013.29 1013.28 1013.24 1013.20 1013.22 1013.33 1013.54 1013.85 1014.19 1014.51 1014.76 1014.88 1014.87 1014.73 1014.50 1014.24 1014.02 1013.85 1013.77 1013.76 1013.78 1013.79 1013.76 1013.67 1013.51 1013.29 1013.03 1012.77 1012.52 1012.29 1012.07 1011.86
1009.32 1010.41 1011.50 1012.47 1013.23 1013.73 1013.97 1013.98 1013.83 1013.59 1013.36 1013.18 1013.09 1013.07 1013.09 1013.11 1013.10 1013.05 1012.95 1012.87 1012.83 1012.89 1013.08 1013.39 1013.80 1014.25 1014.66 1014.98 1015.16 1015.19 1015.09 1014.91 1014.70 1014.51 1014.38 1014.32 1014.31 1014.32 1014.30 1014.23 1014.10 1013.92 1013.69 1013.44 1013.21 1012.99 1012.80 1012.62 1012.45
1009.87 1010.93 1011.93 1012.78 1013.40 1013.77 1013.91 1013.87 1013.71 1013.52 1013.35 1013.25 1013.22 1013.22 1013.22 1013.18 1013.09 1012.93 1012.76 1012.61 1012.55 1012.63 1012.87 1013.25 1013.73 1014.24 1014.71 1015.07 1015.29 1015.36 1015.31 1015.17 1015.02 1014.90 1014.82 1014.79 1014.79 1014.78 1014.75 1014.65 1014.48 1014.27 1014.03 1013.80 1013.60 1013.43 1013.29 1013.17 1013.05
1010.33 1011.30 1012.19 1012.90 1013.39 1013.65 1013.72 1013.66 1013.54 1013.44 1013.38 1013.38 1013.42 1013.46 1013.46 1013.38 1013.20 1012.96 1012.71 1012.51 1012.43 1012.51 1012.76 1013.17 1013.68 1014.21 1014.69 1015.06 1015.29 1015.38 1015.36 1015.28 1015.20 1015.14 1015.12 1015.14 1015.17 1015.17 1015.11 1014.99 1014.79 1014.56 1014.31 1014.09 1013.92 1013.80 1013.71 1013.65 1013.58
1010.68 1011.56 1012.31 1012.88 1013.23 1013.40 1013.43 1013.38 1013.33 1013.33 1013.39 1013.51 1013.65 1013.74 1013.75 1013.64 1013.41 1013.12 1012.81 1012.57 1012.46 1012.53 1012.78 1013.18 1013.68 1014.19 1014.64 1014.98 1015.19 1015.28 1015.28 1015.26 1015.24 1015.25 1015.31 1015.39 1015.45 1015.47 1015.40 1015.26 1015.04 1014.78 1014.53 1014.32 1014.17 1014.08 1014.04 1014.03 1014.01
1010.99 1011.76 1012.38 1012.81 1013.05 1013.13 1013.12 1013.09 1013.11 1013.21 1013.39 1013.62 1013.84 1013.99 1014.02 1013.91 1013.67 1013.34 1013.01 1012.76 1012.64 1012.70 1012.93 1013.30 1013.75 1014.20 1014.58 1014.86 1015.03 1015.10 1015.12 1015.13 1015.18 1015.27 1015.40 1015.53 1015.64 1015.68 1015.62 1015.47 1015.24 1014.97 1014.71 1014.50 1014.36 1014.30 1014.30 1014.32 1014.34
1011.34 1012.03 1012.53 1012.83 1012.96 1012.96 1012.92 1012.90 1012.96 1013.13 1013.40 1013.70 1013.99 1014.19 1014.24 1014.14 1013.91 1013.59 1013.27 1013.02 1012.91 1012.96 1013.17 1013.50 1013.88 1014.25 1014.55 1014.75 1014.86 1014.90 1014.92 1014.96 1015.06 1015.21 1015.40 1015.60 1015.75 1015.82 1015.78 1015.64 1015.41 1015.14 1014.89 1014.69 1014.56 1014.51 1014.53 1014.58 1014.63
1011.84 1012.46 1012.87 1013.06 1013.09 1013.02 1012.92 1012.89 1012.96 1013.16 1013.46 1013.80 1014.11 1014.33 1014.40 1014.32 1014.10 1013.81 1013.52 1013.30 1013.21 1013.26 1013.45 1013.73 1014.04 1014.32 1014.54 1014.66 1014.71 1014.72 1014.73 1014.79 1014.92 1015.12 1015.36 1015.61 1015.80 1015.91 1015.90 1015.77 1015.57 1015.32 1015.09 1014.90 1014.79 1014.77 1014.80 1014.87 1014.93
1012.54 1013.12 1013.46 1013.57 1013.51 1013.36 1013.20 1013.12 1013.16 1013.34 1013.61 1013.93 1014.23 1014.43 1014.49 1014.42 1014.23 1013.97 1013.73 1013.55 1013.48 1013.54 1013.71 1013.95 1014.19 1014.40 1014.54 1014.59 1014.59 1014.57 1014.57 1014.64 1014.79 1015.02 1015.30 1015.57 1015.80 1015.94 1015.96 1015.88 1015.72 1015.51 1015.32 1015.17 1015.09 1015.09 1015.14 1015.22 1015.29
1013.44 1014.00 1014.28 1014.32 1014.19 1013.97 1013.75 1013.60 1013.57 1013.68 1013.88 1014.13 1014.35 1014.50 1014.54 1014.46 1014.28 1014.06 1013.86 1013.72 1013.68 1013.75 1013.91 1014.11 1014.31 1014.46 1014.54 1014.56 1014.52 1014.48 1014.48 1014.55 1014.71 1014.94 1015.22 1015.51 1015.75 1015.92 1015.98 1015.95 1015.85 1015.71 1015.58 1015.48 1015.44 1015.47 1015.54 1015.63 1015.72
1014.45 1014.98 1015.23 1015.23 1015.04 1014.76 1014.47 1014.25 1014.13 1014.13 1014.22 1014.36 1014.49 1014.56 1014.55 1014.45 1014.28 1014.09 1013.92 1013.82 1013.81 1013.89 1014.04 1014.22 1014.38 1014.50 1014.56 1014.56 1014.52 1014.48 1014.48 1014.54 1014.69 1014.91 1015.17 1015.44 1015.68 1015.85 1015.95 1015.97 1015.93 1015.87 1015.81 1015.79 1015.80 1015.87 1015.96 1016.07 1016.17
1015.41 1015.92 1016.14 1016.10 1015.88 1015.56 1015.22 1014.93 1014.72 1014.61 1014.59 1014.60 1014.62 1014.61 1014.54 1014.41 1014.25 1014.09 1013.96 1013.89 1013.90 1013.99 1014.13 1014.29 1014.45 1014.56 1014.62 1014.63 1014.60 1014.58 1014.58 1014.64 1014.76 1014.94 1015.16 1015.39 1015.59 1015.76 1015.87 1015.94 1015.96 1015.97 1015.99 1016.03 1016.11 1016.21 1016.33 1016.46 1016.58
1016.15 1016.62 1016.82 1016.77 1016.55 1016.22 1015.86 1015.52 1015.24 1015.03 1014.89 1014.80 1014.71 1014.62 1014.51 1014.37 1014.22 1014.08 1013.99 1013.96 1013.99 1014.08 1014.23 1014.39 1014.54 1014.66 1014.74 1014.79 1014.80 1014.80 1014.82 1014.86 1014.95 1015.07 1015.22 1015.38 1015.53 1015.66 1015.77 1015.86 1015.93 1016.00 1016.09 1016.19 1016.31 1016.45 1016.60 1016.74 1016.88
1016.55 1016.97 1017.15 1017.12 1016.93 1016.63 1016.28 1015.92 1015.60 1015.32 1015.09 1014.90 1014.73 1014.58 1014.44 1014.31 1014.19 1014.10 1014.06 1014.06 1014.13 1014.23 1014.38 1014.54 1014.71 1014.85 1014.97 1015.05 1015.11 1015.15 1015.18 1015.21 1015.25 1015.31 1015.37 1015.44 1015.52 1015.60 1015.68 1015.77 1015.87 1015.98 1016.10 1016.24 1016.40 1016.56 1016.72 1016.88 1017.04
1016.56 1016.94 1017.12 1017.13 1017.00 1016.77 1016.47 1016.13 1015.79 1015.46 1015.16 1014.89 1014.67 1014.48 1014.34 1014.23 1014.17 1014.15 1014.17 1014.23 1014.32 1014.45 1014.61 1014.78 1014.95 1015.12 1015.27 1015.41 1015.51 1015.59 1015.63 1015.66 1015.65 1015.64 1015.62 1015.60 1015.59 1015.60 1015.64 1015.71 1015.81 1015.93 1016.08 1016.24 1016.40 1016.57 1016.73 1016.90 1017.06
1016.24 1016.58 1016.79 1016.88 1016.85 1016.72 1016.50 1016.20 1015.86 1015.49 1015.13 1014.80 1014.53 1014.32 1014.19 1014.13 1014.14 1014.20 1014.30 1014.42 1014.57 1014.72 1014.89 1015.07 1015.25 1015.44 1015.63 1015.80 1015.95 1016.06 1016.13 1016.14 1016.11 1016.03 1015.94 1015.83 1015.75 1015.70 1015.69 1015.73 1015.82 1015.94 1016.08 1016.23 1016.38 1016.53 1016.68 1016.84 1017.01
1015.72 1016.07 1016.35 1016.55 1016.66 1016.65 1016.51 1016.26 1015.92 1015.51 1015.08 1014.68 1014.35 1014.12 1014.00 1013.98 1014.07 1014.22 1014.40 1014.60 1014.80 1014.99 1015.17 1015.35 1015.54 1015.74 1015.95 1016.15 1016.34 1016.48 1016.57 1016.59 1016.53 1016.42 1016.27 1016.12 1015.98 1015.88 1015.84 1015.86 1015.93 1016.03 1016.16 1016.29 1016.42 1016.54 1016.67 1016.80 1016.96
1015.21 1015.60 1015.99 1016.34 1016.59 1016.71 1016.67 1016.45 1016.08 1015.61 1015.09 1014.59 1014.18 1013.90 1013.77 1013.80 1013.94 1014.17 1014.44 1014.71 1014.96 1015.17 1015.36 1015.54 1015.72 1015.92 1016.13 1016.36 1016.57 1016.74 1016.85 1016.88 1016.83 1016.71 1016.55 1016.38 1016.23 1016.12 1016.07 1016.09 1016.16 1016.26 1016.37 1016.48 1016.58 1016.67 1016.75 1016.86 1016.99
1014.87 1015.36 1015.89 1016.39 1016.80 1017.05 1017.07 1016.86 1016.44 1015.87 1015.22 1014.59 1014.07 1013.72 1013.55 1013.58 1013.76 1014.04 1014.37 1014.69 1014.97 1015.20 1015.39 1015.55 1015.71 1015.89 1016.10 1016.33 1016.56 1016.75 1016.89 1016.95 1016.93 1016.84 1016.70 1016.56 1016.43 1016.35 1016.34 1016.38 1016.48 1016.59 1016.70 1016.80 1016.87 1016.92 1016.96 1017.03 1017.13
1014.80 1015.41 1016.10 1016.77 1017.32 1017.66 1017.73 1017.50 1017.00 1016.30 1015.50 1014.72 1014.06 1013.59 1013.36 1013.35 1013.53 1013.84 1014.19 1014.54 1014.83 1015.06 1015.23 1015.36 1015.49 1015.64 1015.83 1016.05 1016.28 1016.50 1016.67 1016.76 1016.79 1016.75 1016.67 1016.59 1016.53 1016.52 1016.57 1016.68 1016.82 1016.97 1017.10 1017.20 1017.25 1017.27 1017.28 1017.30 1017.36
1015.00 1015.75 1016.58 1017.40 1018.06 1018.48 1018.56 1018.29 1017.70 1016.87 1015.91 1014.97 1014.16 1013.57 1013.24 1013.17 1013.32 1013.61 1013.95 1014.29 1014.57 1014.77 1014.90 1015.00 1015.09 1015.20 1015.36 1015.56 1015.79 1016.01 1016.21 1016.35 1016.43 1016.45 1016.45 1016.45 1016.48 1016.56 1016.71 1016.90 1017.11 1017.32 1017.49 1017.60 1017.65 1017.65 1017.63 1017.61 1017.62
1015.38 1016.24 1017.20 1018.11 1018.86 1019.31 1019.39 1019.08 1018.41 1017.46 1016.37 1015.30 1014.37 1013.66 1013.24 1013.10 1013.19 1013.43 1013.73 1014.03 1014.27 1014.43 1014.51 1014.56 1014.60 1014.67 1014.79 1014.97 1015.18 1015.41 1015.62 1015.79 1015.92 1016.01 1016.08 1016.17 1016.29 1016.47 1016.71 1016.99 1017.29 1017.56 1017.78 1017.92 1017.99 1017.99 1017.94 1017.89 1017.87
1015.79 1016.72 1017.74 1018.71 1019.49 1019.96 1020.03 1019.69 1018.97 1017.96 1016.81 1015.66 1014.65 1013.88 1013.39 1013.18 1013.20 1013.39 1013.63 1013.87 1014.05 1014.15 1014.18 1014.17 1014.16 1014.19 1014.28 1014.43 1014.62 1014.84 1015.05 1015.24 1015.40 1015.53 1015.66 1015.81 1016.01 1016.27 1016.59 1016.96 1017.32 1017.66 1017.94 1018.12 1018.21 1018.22 1018.17 1018.10 1018.04
1016.06 1017.01 1018.03 1019.00 1019.78 1020.25 1020.32 1019.98 1019.27 1018.28 1017.14 1016.01 1015.00 1014.22 1013.71 1013.46 1013.43 1013.55 1013.73 1013.89 1014.01 1014.04 1014.02 1013.97 1013.92 1013.92 1013.97 1014.10 1014.27 1014.46 1014.66 1014.84 1014.99 1015.14 1015.29 1015.48 1015.72 1016.03 1016.41 1016.83 1017.25 1017.64 1017.96 1018.18 1018.30 1018.33 1018.29 1018.22 1018.16
1016.11 1017.00 1017.98 1018.90 1019.64 1020.09 1020.18 1019.89 1019.26 1018.36 1017.33 1016.30 1015.39 1014.67 1014.20 1013.95 1013.89 1013.96 1014.07 1014.17 1014.21 1014.19 1014.13 1014.04 1013.97 1013.95 1013.99 1014.09 1014.24 1014.40 1014.57 1014.71 1014.84 1014.96 1015.10 1015.28 1015.52 1015.85 1016.24 1016.68 1017.13 1017.55 1017.90 1018.16 1018.32 1018.38 1018.36 1018.31 1018.26
1015.91 1016.71 1017.57 1018.40 1019.08 1019.51 1019.63 1019.43 1018.93 1018.21 1017.38 1016.54 1015.80 1015.22 1014.83 1014.62 1014.56 1014.60 1014.65 1014.69 1014.68 1014.62 1014.53 1014.43 1014.36 1014.34 1014.37 1014.46 1014.59 1014.72 1014.84 1014.94 1015.01 1015.08 1015.17 1015.31 1015.52 1015.81 1016.19 1016.61 1017.06 1017.49 1017.86 1018.15 1018.34 1018.43 1018.46 1018.45 1018.42
1015.57 1016.23 1016.95 1017.65 1018.25 1018.66 1018.83 1018.74 1018.42 1017.92 1017.34 1016.74 1016.22 1015.82 1015.55 1015.41 1015.37 1015.39 1015.40 1015.40 1015.35 1015.27 1015.17 1015.08 1015.02 1015.02 1015.07 1015.17 1015.28 1015.38 1015.46 1015.49 1015.50 1015.50 1015.53 1015.60 1015.75 1016.00 1016.33 1016.72 1017.15 1017.57 1017.94 1018.24 1018.46 1018.59 1018.67 1018.70 1018.72
Thickness
5808 5810 5810 5798 5776 5762 5757 5764 5773 5773 5776 5784 5788 5784 5773 5765 5757 5745 5766 5779 5779 5777 5774 5772 5771 5771 5771 5771 5771 5770 5770 5769 5769 5769 5769 5768 5767 5767 5767 5766 5766 5766 5765 5765 5765 5766 5767 5767 5768
5811 5813 5802 5785 5763 5748 5751 5766 5767 5772 5780 5787 5788 5784 5775 5767 5771 5767 5771 5777 5779 5776 5772 5770 5769 5769 5769 5768 5768 5767 5767 5767 5766 5766 5765 5765 5764 5764 5764 5763 5762 5762 5762 5762 5762 5763 5763 5764 5764
5810 5810 5790 5775 5763 5753 5753 5767 5771 5779 5786 5786 5781 5780 5772 5765 5771 5769 5774 5779 5778 5775 5770 5767 5766 5766 5766 5766 5765 5764 5764 5764 5763 5762 5762 5762 5761 5760 5760 5759 5759 5759 5758 5759 5759 5759 5759 5760 5760
5806 5796 5786 5768 5757 5766 5768 5773 5779 5777 5781 5785 5781 5770 5769 5775 5775 5774 5778 5780 5776 5773 5769 5765 5764 5763 5763 5762 5762 5761 5761 5760 5760 5759 5759 5758 5757 5757 5756 5755 5755 5755 5755 5755 5755 5755 5756 5756 5756
5802 5783 5767 5756 5759 5769 5777 5782 5783 5775 5775 5779 5777 5762 5759 5772 5778 5778 5778 5778 5774 5771 5768 5764 5762 5761 5760 5760 5759 5758 5758 5757 5756 5756 5755 5754 5754 5753 5752 5752 5751 5751 5751 5751 5751 5751 5752 5752 5752
5785 5778 5754 5746 5756 5769 5778 5785 5783 5776 5774 5776 5772 5761 5757 5771 5773 5774 5777 5776 5774 5770 5767 5763 5761 5760 5758 5757 5756 5756 5755 5754 5753 5752 5752 5751 5750 5749 5748 5748 5747 5747 5747 5747 5747 5747 5747 5747 5748
5775 5765 5754 5755 5755 5762 5774 5785 5779 5773 5770 5774 5777 5761 5757 5766 5771 5774 5775 5774 5773 5770 5767 5763 5760 5758 5756 5755 5754 5753 5752 5751 5750 5749 5749 5748 5747 5746 5745 5744 5744 5744 5743 5743 5743 5743 5743 5743 5744
5785 5769 5757 5757 5754 5758 5775 5781 5781 5775 5770 5781 5781 5761 5754 5764 5772 5772 5772 5771 5769 5768 5766 5764 5762 5758 5755 5753 5751 5751 5749 5748 5747 5746 5745 5745 5744 5743 5742 5741 5740 5740 5739 5739 5739 5739 5739 5739 5740
5788 5760 5750 5756 5757 5762 5775 5774 5777 5784 5776 5776 5777 5771 5769 5772 5771 5767 5765 5764 5763 5763 5763 5763 5761 5759 5756 5753 5750 5748 5747 5746 5745 5744 5743 5742 5741 5740 5739 5738 5737 5736 5736 5736 5736 5735 5735 5736 5736
5776 5751 5755 5770 5772 5770 5773 5772 5773 5772 5766 5765 5766 5769 5771 5769 5765 5760 5758 5757 5757 5757 5759 5760 5759 5757 5755 5752 5748 5747 5745 5744 5743 5743 5741 5740 5739 5738 5736 5735 5734 5733 5732 5732 5732 5732 5732 5732 5733
5773 5758 5766 5774 5778 5776 5771 5771 5776 5767 5758 5763 5761 5762 5764 5763 5761 5759 5758 5756 5756 5757 5757 5757 5757 5755 5753 5750 5748 5746 5744 5742 5742 5741 5739 5738 5736 5735 5733 5731 5730 5729 5729 5729 5729 5729 5729 5729 5729
5770 5769 5772 5772 5777 5774 5769 5770 5769 5766 5765 5775 5772 5768 5764 5760 5758 5758 5757 5756 5757 5755 5754 5755 5755 5753 5751 5749 5746 5744 5743 5741 5739 5738 5737 5735 5734 5733 5731 5730 5728 5727 5726 5726 5726 5725 5725 5725 5725
5765 5765 5771 5773 5773 5772 5770 5766 5765 5765 5773 5776 5772 5767 5762 5760 5760 5760 5761 5759 5757 5753 5751 5752 5752 5750 5749 5746 5744 5742 5739 5738 5736 5735 5734 5733 5731 5729 5728 5727 5725 5724 5723 5722 5722 5721 5720 5720 5719
5766 5766 5766 5768 5768 5769 5763 5762 5762 5763 5771 5769 5766 5762 5762 5760 5760 5759 5758 5756 5755 5753 5750 5750 5749 5748 5746 5743 5741 5739 5737 5735 5733 5732 5731 5730 5728 5727 5725 5723 5721 5720 5719 5719 5718 5717 5715 5714 5713
5768 5758 5756 5761 5764 5765 5761 5750 5756 5766 5768 5763 5762 5761 5760 5760 5760 5758 5757 5755 5754 5752 5750 5747 5746 5745 5743 5740 5738 5736 5734 5732 5730 5728 5728 5727 5725 5724 5721 5719 5718 5717 5716 5715 5713 5712 5711 5709 5708
5759 5748 5739 5754 5761 5764 5751 5735 5758 5769 5765 5759 5759 5759 5757 5758 5759 5759 5759 5756 5755 5752 5749 5746 5744 5741 5739 5737 5735 5733 5731 5728 5726 5724 5723 5723 5722 5720 5717 5715 5714 5713 5711 5710 5708 5707 5704 5703 5702
5744 5736 5737 5747 5761 5761 5750 5741 5758 5767 5763 5757 5758 5757 5755 5755 5756 5757 5758 5756 5753 5750 5747 5744 5741 5738 5735 5733 5731 5729 5727 5724 5722 5720 5719 5718 5717 5716 5713 5711 5710 5709 5707 5705 5704 5701 5699 5697 5696
5736 5739 5741 5744 5757 5756 5747 5747 5756 5763 5761 5758 5758 5758 5756 5753 5754 5756 5756 5754 5751 5748 5746 5742 5739 5735 5732 5729 5727 5723 5721 5720 5718 5716 5715 5714 5713 5711 5709 5707 5705 5703 5701 5699 5698 5696 5695 5692 5692
5749 5743 5741 5748 5760 5752 5746 5747 5754 5760 5758 5756 5757 5757 5755 5755 5757 5756 5754 5751 5747 5745 5742 5739 5735 5732 5728 5724 5720 5716 5713 5713 5713 5712 5711 5709 5708 5706 5704 5703 5701 5698 5695 5694 5693 5691 5688 5686 5686
5746 5739 5740 5749 5759 5752 5744 5746 5755 5758 5758 5759 5758 5757 5756 5754 5753 5751 5750 5746 5743 5740 5738 5736 5733 5729 5726 5721 5718 5715 5712 5710 5708 5707 5706 5705 5703 5702 5700 5698 5695 5693 5691 5689 5687 5685 5681 5680 5681
5741 5739 5739 5741 5749 5751 5743 5737 5748 5757 5762 5762 5761 5760 5758 5755 5752 5749 5745 5742 5739 5736 5735 5734 5731 5728 5724 5720 5716 5712 5708 5706 5703 5701 5700 5700 5699 5697 5695 5693 5691 5689 5687 5683 5682 5680 5677 5673 5674
5731 5747 5746 5742 5733 5729 5737 5717 5741 5752 5753 5755 5755 5755 5754 5754 5753 5749 5745 5741 5738 5736 5736 5733 5730 5726 5722 5718 5713 5707 5702 5697 5697 5697 5696 5695 5695 5693 5691 5689 5687 5685 5683 5680 5678 5676 5673 5670 5666
5740 5749 5744 5739 5732 5727 5735 5724 5736 5751 5744 5747 5751 5752 5753 5753 5752 5748 5745 5742 5740 5736 5734 5731 5727 5723 5720 5716 5711 5705 5700 5698 5696 5695 5693 5691 5690 5689 5687 5685 5683 5681 5679 5676 5674 5671 5669 5666 5663
5747 5742 5739 5737 5727 5710 5729 5724 5727 5743 5746 5747 5749 5751 5751 5752 5750 5748 5745 5742 5738 5735 5732 5728 5724 5720 5717 5713 5708 5704 5698 5695 5692 5690 5687 5686 5685 5684 5683 5681 5679 5676 5674 5672 5669 5667 5664 5662 5660
5739 5721 5706 5703 5701 5711 5740 5730 5730 5749 5756 5752 5748 5748 5750 5750 5747 5744 5740 5736 5732 5729 5727 5724 5720 5716 5714 5710 5706 5702 5698 5694 5690 5687 5685 5682 5680 5678 5677 5677 5674 5672 5670 5667 5665 5662 5660 5658 5655
5731 5724 5701 5691 5698 5715 5733 5726 5736 5754 5756 5755 5752 5749 5747 5745 5743 5740 5737 5733 5729 5726 5723 5720 5717 5713 5711 5707 5704 5701 5698 5693 5689 5687 5683 5680 5677 5675 5674 5672 5670 5668 5665 5663 5660 5657 5655 5653 5651
5725 5724 5731 5716 5712 5707 5721 5731 5737 5748 5745 5745 5744 5742 5740 5741 5739 5737 5734 5730 5727 5723 5720 5718 5715 5711 5708 5705 5702 5698 5695 5691 5687 5684 5682 5678 5676 5673 5671 5668 5665 5663 5660 5658 5655 5652 5650 5648 5646
5735 5731 5720 5707 5693 5691 5710 5721 5721 5728 5732 5736 5736 5735 5736 5736 5735 5733 5731 5728 5725 5722 5718 5716 5713 5709 5705 5702 5698 5695 5691 5688 5684 5681 5677 5675 5672 5670 5667 5664 5661 5658 5655 5653 5650 5647 5645 5642 5640
5725 5721 5718 5712 5709 5693 5690 5705 5738 5734 5735 5733 5733 5733 5732 5731 5730 5728 5726 5724 5721 5718 5715 5711 5708 5705 5701 5698 5695 5690 5687 5684 5681 5677 5674 5671 5669 5666 5663 5659 5656 5653 5650 5648 5645 5642 5640 5637 5635
5728 5724 5717 5699 5699 5706 5695 5701 5741 5739 5738 5734 5731 5730 5730 5729 5727 5725 5722 5719 5715 5712 5709 5706 5703 5700 5697 5694 5690 5686 5683 5679 5676 5673 5670 5668 5664 5662 5659 5655 5652 5648 5646 5643 5640 5636 5634 5632 5630